Regional Weather Roundup
Issued by NWS Goodland, KS

Home | Current Version | Previous Version | Graphics & Text | Print | Product List | Glossary On
Versions: 1 2 3 4 5 6 7 8 9 10 11 12 13 14 15 16 17 18 19 20 21 22 23 24 25 26 27 28 29 30 31 32 33 34 35 36 37 38 39 40 41 42 43 44 45 46 47 48 49 50
000
ASUS43 KGLD 030608
RWRGLD

GOODLAND FORECAST AREA HOURLY WEATHER ROUNDUP
NATIONAL WEATHER SERVICE GOODLAND KS
1200 AM MDT THU SEP 03 2015

...OFFICIAL OBSERVATIONS...

CITY           SKY/WX    TMP DP  RH WIND       PRES   REMARKS
GOODLAND KS    MOCLDY    77  54  44 S14       29.91S
HILL CITY KS   FAIR      83  58  42 S12       29.85S
IMPERIAL NEB   CLEAR     71  56  58 E6        29.87F
MCCOOK NEB     MOCLDY    76  58  53 SE6       29.84S
AKRON CO       PTCLDY    71  39  31 S8        29.98F
BURLINGTON CO  MOCLDY    65  50  58 S7        29.96S
LIMON CO       MOCLDY    56  47  71 N7        30.04F
$$

...UNOFFICIAL OBSERVATIONS...

CITY           SKY/WX    TMP DP  RH WIND       PRES   REMARKS
COLBY KS       CLEAR     77  59  53 S12       29.90S
GOVE KS          N/A     80  32  17 MISG        N/A
LENORA KS        N/A     80  32  17 MISG        N/A
NORTON KS      CLEAR     79  52  38 S9        29.84
TRENTON NEB      N/A     71  32  23 E8          N/A
YUMA CO          N/A     63  50  61 CALM        N/A
$$


USA.gov is the U.S. government's official web portal to all federal, state and local government web resources and services.